Weather History for KRME - June, 2013

Change the Weather History Date:

Saturday, June 15, 2013

  Actual Average Record
Temperature  
Mean Temperature 62 °F -  
Max Temperature 73 °F 79 °F 97 °F (1988)
Min Temperature 50 °F 53 °F 39 °F (1992)
Degree Days  
Heating Degree Days 4    
Growing Degree Days 12 (Base 50)    
Moisture  
Dew Point 49 °F    
Average Humidity 78    
Maximum Humidity 100    
Minimum Humidity 31    
Precipitation  
Precipitation 0.00 in - - ()
Sea Level Pressure  
Sea Level Pressure 29.99 in    
Wind  
Wind Speed 4 mph (WNW)    
Max Wind Speed 17 mph    
Max Gust Speed 23 mph    
Visibility 7 miles    
Events Fog    
Averages and records for this station are not official NWS values.
T = Trace of Precipitation, MM = Missing Value Source: NWS Daily Summary

Daily Weather History Graph

Daily Weather History Graph

Search for Another Location

Airport or City:

Trip Planner

Search our weather history database for the weather conditions in past years. The results will help you decide how hot, cold, wet, or windy it might be!

Date:

Astronomy

Jun. 15, 2013 Rise Set
Actual Time 5:21 AM EDT 8:43 PM EDT
Civil Twilight 4:45 AM EDT 9:19 PM EDT
Nautical Twilight 3:59 AM EDT 10:05 PM EDT
Astronomical Twilight 3:01 AM EDT 11:03 PM EDT
Moon 12:03 PM EDT (6/15) 12:08 AM EDT (6/15)
Length of Visible Light 16h 33m
Length of Day
15h 22m
Waxing Crescent, 39% of the Moon is Illuminated
Jun 15
Waxing Crescent
Jun 16
First Quarter
Jun 23
Full
Jun 30
Last Quarter
Jul 8
New

Hourly Weather History & Observations

Time (EDT) Temp. Dew Point Humidity Pressure Visibility Wind Dir Wind Speed Gust Speed Precip Events Conditions
12:53 AM 54.0 °F 52.0 °F 93% 29.95 in 10.0 mi NW 5.8 mph - N/A   Clear
1:53 AM 53.1 °F 51.1 °F 93% 29.96 in 10.0 mi NW 4.6 mph - N/A   Clear
2:53 AM 52.0 °F 51.1 °F 97% 29.97 in 9.0 mi NNW 4.6 mph - N/A   Clear
3:22 AM 51.1 °F 50.0 °F 96% 29.98 in 8.0 mi NNW 4.6 mph - N/A   Scattered Clouds
3:27 AM 52.0 °F 51.1 °F 97% 29.97 in 2.0 mi North 3.5 mph - N/A   Mostly Cloudy
3:31 AM 52.0 °F 51.1 °F 97% 29.98 in 1.0 mi NNW 4.6 mph - N/A   Mist
3:39 AM 52.0 °F 51.1 °F 97% 29.98 in 0.5 mi NW 3.5 mph - N/A Fog Fog
3:53 AM 51.1 °F 51.1 °F 100% 29.97 in 0.2 mi WNW 3.5 mph - N/A Fog Fog
4:41 AM 51.1 °F 51.1 °F 100% 29.98 in 0.5 mi Calm Calm - N/A Fog Fog
4:53 AM 51.1 °F 51.1 °F 100% 29.97 in 0.2 mi Calm Calm - N/A Fog Fog
5:05 AM 50.0 °F 50.0 °F 100% 29.98 in 0.2 mi Calm Calm - N/A Fog Fog
5:43 AM 50.0 °F 48.9 °F 96% 29.99 in 0.2 mi Calm Calm - N/A Fog Fog
5:53 AM 50.0 °F 48.9 °F 96% 29.99 in 0.2 mi Calm Calm - N/A Fog Fog
6:53 AM 50.0 °F 48.9 °F 96% 30.01 in 0.2 mi Calm Calm - N/A Fog Fog
7:06 AM 50.0 °F 50.0 °F 100% 30.01 in 0.5 mi Calm Calm - N/A Fog Fog
7:19 AM 51.1 °F 50.0 °F 96% 30.01 in 2.0 mi Calm Calm - N/A   Overcast
7:27 AM 51.1 °F 50.0 °F 96% 30.02 in 6.0 mi Calm Calm - N/A   Overcast
7:53 AM 52.0 °F 51.1 °F 97% 30.02 in 10.0 mi Calm Calm - N/A   Mostly Cloudy
8:01 AM 52.0 °F 51.1 °F 97% 30.03 in 10.0 mi Calm Calm - N/A   Scattered Clouds
8:53 AM 57.0 °F 52.0 °F 83% 30.03 in 10.0 mi Calm Calm - N/A   Clear
9:53 AM 63.0 °F 54.0 °F 72% 30.02 in 10.0 mi Calm Calm - N/A   Clear
10:53 AM 66.9 °F 52.0 °F 59% 30.02 in 10.0 mi West 6.9 mph - N/A   Clear
11:53 AM 70.0 °F 48.0 °F 46% 30.01 in 10.0 mi West 10.4 mph - N/A   Clear
12:53 PM 71.1 °F 48.0 °F 44% 30.00 in 10.0 mi WSW 10.4 mph - N/A   Scattered Clouds
1:53 PM 72.0 °F 48.0 °F 43% 29.99 in 10.0 mi WSW 11.5 mph - N/A   Scattered Clouds
2:53 PM 73.0 °F 45.0 °F 37% 29.97 in 10.0 mi WSW 17.3 mph 23.0 mph N/A   Partly Cloudy
3:53 PM 73.0 °F 45.0 °F 37% 29.97 in 10.0 mi West 13.8 mph - N/A   Clear
4:53 PM 73.0 °F 43.0 °F 34% 29.96 in 10.0 mi West 13.8 mph - N/A   Clear
5:53 PM 72.0 °F 42.1 °F 34% 29.96 in 10.0 mi West 11.5 mph - N/A   Clear
6:53 PM 71.1 °F 39.0 °F 31% 29.96 in 10.0 mi West 9.2 mph - N/A   Clear
7:53 PM 64.9 °F 45.0 °F 48% 29.97 in 10.0 mi NW 6.9 mph - N/A   Clear
8:53 PM 60.1 °F 46.9 °F 62% 29.98 in 10.0 mi North 4.6 mph - N/A   Clear
9:53 PM 55.0 °F 48.0 °F 77% 29.99 in 10.0 mi Calm Calm - N/A   Clear
10:53 PM 53.1 °F 48.0 °F 83% 29.99 in 10.0 mi SE 3.5 mph - N/A   Clear
11:53 PM 51.1 °F 46.9 °F 86% 29.98 in 10.0 mi Calm Calm - N/A   Clear